Seeley, CA

6:43 AM PDT on July 26, 2016 (GMT -0700)
El Centro Naval Air Facility

Weather History for KNJK - January, 2013

Change the Weather History Date:

Tuesday, January 29, 2013

  Actual Average Record
Temperature  
Mean Temperature 50 °F -  
Max Temperature 64 °F 69 °F 81 °F (2014)
Min Temperature 37 °F 45 °F 32 °F (2012)
Degree Days  
Heating Degree Days 14    
Moisture  
Dew Point 34 °F    
Average Humidity 54    
Maximum Humidity 76    
Minimum Humidity 29    
Precipitation  
Precipitation 0.00 in - - ()
Sea Level Pressure  
Sea Level Pressure 30.19 in    
Wind  
Wind Speed 6 mph (NNW)    
Max Wind Speed 10 mph    
Max Gust Speed -    
Visibility 10 miles    
Events      
Averages and records for this station are not official NWS values.
T = Trace of Precipitation, MM = Missing Value Source: NWS Daily Summary

Daily Weather History Graph

Daily Weather History Graph

Search for Another Location

Airport or City:

Trip Planner

Search our weather history database for the weather conditions in past years. The results will help you decide how hot, cold, wet, or windy it might be!

Date:

Astronomy

Jan. 29, 2013 Rise Set
Actual Time 6:39 AM PST 5:12 PM PST
Civil Twilight 6:13 AM PST 5:38 PM PST
Nautical Twilight 5:43 AM PST 6:08 PM PST
Astronomical Twilight 5:14 AM PST 6:37 PM PST
Moon 8:00 PM PST (1/29) 7:49 AM PST (1/29)
Length of Visible Light 11h 25m
Length of Day
10h 33m
Waning Gibbous, 93% of the Moon is Illuminated
Jan 29
Waning Gibbous
Feb 3
Last Quarter
Feb 9
New
Feb 17
First Quarter
Feb 25
Full

Hourly Weather History & Observations

Time (PST) Temp. Windchill Dew Point Humidity Pressure Visibility Wind Dir Wind Speed Gust Speed Precip Events Conditions
12:56 AM 44.1 °F 38.6 °F 32.0 °F 63% 30.18 in 10.0 mi West 10.4 mph - N/A   Clear
1:56 AM 44.1 °F 40.1 °F 32.0 °F 63% 30.18 in 10.0 mi West 6.9 mph - N/A   Clear
2:56 AM 43.0 °F 39.5 °F 32.0 °F 65% 30.18 in 10.0 mi SW 5.8 mph - N/A   Clear
3:56 AM 42.1 °F 39.2 °F 30.9 °F 65% 30.18 in 10.0 mi SW 4.6 mph - N/A   Clear
4:56 AM 41.0 °F 38.0 °F 30.9 °F 67% 30.18 in 10.0 mi SSW 4.6 mph - N/A   Clear
5:56 AM 43.0 °F 38.2 °F 30.9 °F 62% 30.19 in 10.0 mi WSW 8.1 mph - N/A   Clear
6:56 AM 37.9 °F 33.5 °F 30.9 °F 76% 30.19 in 10.0 mi WSW 5.8 mph - N/A   Clear
7:56 AM 44.1 °F 41.5 °F 35.1 °F 71% 30.21 in 10.0 mi NNW 4.6 mph - N/A   Partly Cloudy
8:56 AM 54.0 °F - 35.1 °F 49% 30.21 in 10.0 mi Calm Calm - N/A   Scattered Clouds
9:56 AM 59.0 °F - 32.0 °F 36% 30.22 in 10.0 mi NE 3.5 mph - N/A   Mostly Cloudy
10:56 AM 60.1 °F - 30.9 °F 33% 30.21 in 10.0 mi WNW 3.5 mph - N/A   Mostly Cloudy
11:56 AM 62.1 °F - 30.0 °F 30% 30.18 in 10.0 mi NNE 5.8 mph - N/A   Mostly Cloudy
12:56 PM 63.0 °F - 30.9 °F 30% 30.15 in 10.0 mi Calm Calm - N/A   Mostly Cloudy
1:56 PM 64.9 °F - 32.0 °F 29% 30.14 in 10.0 mi NE 3.5 mph - N/A   Mostly Cloudy
2:56 PM 64.9 °F - 34.0 °F 32% 30.12 in 10.0 mi ESE 4.6 mph - N/A   Mostly Cloudy
3:56 PM 64.9 °F - 36.0 °F 34% 30.12 in 10.0 mi SE 6.9 mph - N/A   Mostly Cloudy
4:56 PM 63.0 °F - 37.0 °F 38% 30.14 in 10.0 mi ESE 4.6 mph - N/A   Mostly Cloudy
5:56 PM 55.9 °F - 39.9 °F 55% 30.16 in 10.0 mi North 4.6 mph - N/A   Scattered Clouds
6:56 PM 53.1 °F - 37.9 °F 57% 30.19 in 10.0 mi NNE 8.1 mph - N/A   Partly Cloudy
7:56 PM 50.0 °F - 37.0 °F 61% 30.21 in 10.0 mi North 5.8 mph - N/A   Clear
8:56 PM 48.9 °F - 37.0 °F 64% 30.22 in 10.0 mi NE 5.8 mph - N/A   Clear
9:56 PM 48.9 °F - 37.0 °F 64% 30.23 in 10.0 mi ESE 4.6 mph - N/A   Clear
10:56 PM 46.0 °F - 37.0 °F 71% 30.26 in 10.0 mi Calm Calm - N/A   Clear
11:56 PM 44.1 °F 42.5 °F 36.0 °F 73% 30.27 in 10.0 mi WNW 3.5 mph - N/A   Clear